User: anonymous   Login
Location: Feydey
(46.3431°N, 7.0106°E)
Time: 01:42:31
(UTC+00:00)
Language:

Nimbus 7 Rocket - Orbit

View from above orbital plane
View from above orbital plane
View from above satellite
View from above satellite

Ground track
Ground track

The orbit data is extracted from the following two-line orbital elements,

1 11081U 78098B   21268.48693588  .00000020  00000-0  56986-4 0  9993
2 11081  99.3815 175.2705 0029901  78.3975 282.0535 13.85712884  9006
Epoch (UTC): 25 September 2021 11:41:11
Eccentricity: 0.0029901
inclination: 99.3815°
perigee height: 922 km
apogee height: 965 km
right ascension of ascending node: 175.2705°
argument of perigee: 78.3975°
revolutions per day: 13.85712884
mean anomaly at epoch: 282.0535°
orbit number at epoch: 900

The dashed part of the orbit path shows where the satellite is in the earth's shadow,  

DLR